FENGYUN 1C DEB

Last updated on June 10, 2016, 5:55 a.m. UTC

1 41018U 99025EXY 16151.02571691  .00000460  00000-0  62096-3 0  9990
2 41018  99.8470  85.1601 0328035  42.9635 319.6622 13.44787779412737
UTC
Height (km)
Latitude
Longitude
Inclination
Orbital Period
UTC large
Height (km)
Speed (km/s)
/
Latitude / Longitude
Inclination (degrees)
Orbital Period (minutes)
Azimuth
Elevation
Range (km)
Doppler Factor
iOS Compass Heading
iOS Angle